Tracking 19795 objects as of 19-Jul-2019
HD Live streaming from Space Station
objects crossing your sky now

SL-8 R/B

Track SL-8 R/B now!
10-day predictions


NORAD ID: 11379
Int'l Code: 1979-046B
Perigee: 965.2 km
Apogee: 994.9 km
Inclination: 82.9 °
Period: 104.5 minutes
Semi major axis: 7351 km
RCS: 4.2164 m2 (large)
Launch date: May 31, 1979
Source: Commonwealth of Independent States (former USSR) (CIS)
Launch site: PLESETSK MISSILE AND SPACE COMPLEX (PKMTR)

Note: This is a ROCKET BODY
aabbcc
Your satellite tracking list
Your tracking list is empty




NASA's NSSDC Master Catalog

Two Line Element Set (TLE):
1 11379U 79046B   19199.34252550  .00000044  00000-0  28499-4 0  9996
2 11379  82.9447 101.8502 0020227 230.4722 259.9921 13.77451587996220
Source of the keplerian elements: AFSPC